Погода в Михайловке

Украина / Хмельницкая область     48°47′01″N   26°46′38″E
темп.,
°C
ветер,
м/с
пор.,
м/с
влажн.,
%
обл.,
%
осадки,
мм/ч
давл.,
гПа
погр.,
м
12 мая, ср
ср1200:00+12в34860 0.0 101658
03:00+11в33890 0.0 101544
06:00+11в34940 0.0 101466
09:00+13в7986100 0.0 1013597
12:00+11вюв71082100 0.1 1014624
15:00+12ююв476934 0.1 1013702
18:00+15вюв6761100 0.0 10121089
21:00+11вюв596688 0.0 1012554
13 мая, чт
чт1300:00+7вюв410815 0.0 1011218
03:00+6вюв4108433 0.0 1009212
06:00+8юв6128396 0.0 1007512
09:00+10ююв8128094 0.0 1006773
12:00+13ююв8107393 0.0 1005996
15:00+17ююв91166100 0.0 10031235
18:00+15ююв81075100 0.0 1003877
21:00+12ююв61188100 0.6 1004573
14 мая, пт
пт1400:00+9юв4109736 0.3 1005293
03:00+8юв229821 0.3 100535
06:00+8вюв2297100 0.0 100436
09:00+12ююв3489100 0.0 1005282
12:00+12ююз1290100 0.9 1006149
15:00+17ююз466364 1.4 10051040
18:00+15з686563 0.5 1007844
21:00+11з5117293 0.5 1008346
15 мая, сб
сб1500:00+11з3975100 0.0 1009378
03:00+10зсз3882100 0.3 1010383
06:00+10зюз2583100 0.0 1011192
09:00+12з467498 0.0 1012720
12:00+16з3557100 0.0 10121425
15:00+17зюз125081 0.1 10111626
18:00+18юв225118 0.0 10111104
21:00+13в336577 0.0 101033
16 мая, вс
вс1600:00+11вюв357563 0.0 101177
03:00+10в41082100 0.1 1010170
06:00+10вюв41089100 0.1 1010226
09:00+14юв5884100 1.4 1010473
12:00+18юв4669100 0.3 1009964
15:00+20ююв6858100 1.1 10081788
18:00+19ююв4767100 0.8 10061191
21:00+14юв41086100 2.7 1006178